User: anonymous   Login
Location: Unspecified
(0.0000°N, 0.0000°E)
Time: 14:41:11
(UTC+00:00)
Language:

Tandem-X - Orbit

View from above orbital plane
View from above orbital plane
View from above satellite
View from above satellite

Ground track
Ground track

The orbit data is extracted from the following two-line orbital elements,

1 36605U 10030A   17352.35550409  .00000334  00000-0  19098-4 0  9994
2 36605  97.4450 357.3915 0001929  78.8374  34.0767 15.19156175415572
Epoch (UTC): 18 December 2017 08:31:55
Eccentricity: 0.0001929
inclination: 97.4450°
perigee height: 507 km
apogee height: 510 km
right ascension of ascending node: 357.3915°
argument of perigee: 78.8374°
revolutions per day: 15.19156175
mean anomaly at epoch: 34.0767°
orbit number at epoch: 41557

The dashed part of the orbit path shows where the satellite is in the earth's shadow,  

DLR